| time (UTC) | temp C | wind direction | speed KPH | gust KPH | rain 1hr cm | rain 24hr cm | rain mn cm | humidity % | barometer mb |
| 20260507070101 | 6 | 229 | 1.6 | 4.8 | 0.00 | 0.18 | 0.00 | 93 | 1013.5 |
| 20260507064550 | 5 | 229 | 1.6 | 3.2 | 0.00 | 0.46 | 0.00 | 93 | 1013.5 |
| 20260507063051 | 6 | 229 | 1.6 | 4.8 | 0.00 | 0.46 | 0.00 | 93 | 1013.5 |
| 20260507061547 | 6 | 229 | 3.2 | 4.8 | 0.00 | 0.46 | 0.00 | 93 | 1013.5 |
| 20260507060059 | 6 | 229 | 3.2 | 4.8 | 0.00 | 0.46 | 0.00 | 92 | 1013.5 |
| 20260507054547 | 5 | 229 | 0.0 | 3.2 | 0.00 | 0.79 | 0.00 | 91 | 1013.7 |
| 20260507053049 | 6 | 229 | 0.0 | 4.8 | 0.00 | 0.79 | 0.00 | 92 | 1013.7 |
| 20260507051542 | 6 | 229 | 0.0 | 0.0 | 0.00 | 0.79 | 0.00 | 92 | 1013.9 |
| 20260507050043 | 6 | 229 | 1.6 | 3.2 | 0.00 | 0.79 | 0.00 | 92 | 1014.0 |
| 20260507044538 | 6 | 229 | 0.0 | 0.0 | 0.00 | 0.79 | 0.00 | 91 | 1013.8 |
| 20260507043036 | 6 | 229 | 0.0 | 0.0 | 0.00 | 0.79 | 0.00 | 91 | 1013.8 |
| 20260507041537 | 6 | 229 | 0.0 | 0.0 | 0.00 | 0.79 | 0.00 | 91 | 1013.8 |
| 20260507040034 | 6 | 229 | 0.0 | 4.8 | 0.00 | 0.79 | 0.00 | 88 | 1013.7 |
| 20260507034548 | 6 | 229 | 0.0 | 0.0 | 0.00 | 0.81 | 0.79 | 89 | 1013.8 |
| 20260507033031 | 7 | 229 | 0.0 | 1.6 | 0.00 | 0.81 | 0.79 | 89 | 1013.8 |
| 20260507031527 | 7 | 229 | 0.0 | 1.6 | 0.00 | 0.81 | 0.79 | 88 | 1014.0 |
| 20260507030025 | 7 | 229 | 0.0 | 1.6 | 0.00 | 0.81 | 0.79 | 87 | 1014.1 |
| 20260507024543 | 7 | 229 | 0.0 | 0.0 | 0.00 | 0.97 | 0.79 | 87 | 1013.9 |
| 20260507023022 | 7 | 229 | 0.0 | 0.0 | 0.00 | 0.97 | 0.79 | 87 | 1013.9 |
| 20260507021522 | 7 | 229 | 0.0 | 0.0 | 0.00 | 0.97 | 0.79 | 83 | 1013.7 |
| 20260507020024 | 8 | 307 | 0.0 | 0.0 | 0.00 | 0.97 | 0.79 | 83 | 1013.6 |
| 20260507014532 | 8 | 307 | 0.0 | 0.0 | 0.00 | 1.19 | 0.79 | 84 | 1013.4 |
| 20260507013017 | 8 | 307 | 0.0 | 0.0 | 0.00 | 1.19 | 0.79 | 81 | 1013.0 |
| 20260507011531 | 9 | 307 | 0.0 | 1.6 | 0.00 | 1.19 | 0.79 | 80 | 1013.2 |
| 20260507010018 | 9 | 307 | 0.0 | 1.6 | 0.00 | 1.19 | 0.79 | 78 | 1013.0 |
| 20260507004515 | 10 | 307 | 1.6 | 4.8 | 0.00 | 1.19 | 0.79 | 75 | 1013.2 |
| 20260507003016 | 10 | 307 | 4.8 | 12.9 | 0.00 | 1.19 | 0.79 | 71 | 1012.8 |
| 20260507001510 | 11 | 309 | 9.7 | 17.7 | 0.00 | 1.19 | 0.79 | 68 | 1012.5 |
| 20260507000010 | 11 | 300 | 14.5 | 24.1 | 0.00 | 1.19 | 0.79 | 65 | 1012.1 |
| 20260506234509 | 12 | 300 | 14.5 | 20.9 | 0.00 | 1.19 | 0.79 | 66 | 1012.0 |
| 20260506233008 | 12 | 288 | 12.9 | 22.5 | 0.00 | 1.19 | 0.79 | 66 | 1011.8 |
| 20260506231507 | 12 | 290 | 14.5 | 19.3 | 0.00 | 1.19 | 0.79 | 64 | 1012.0 |
| 20260506230012 | 12 | 285 | 14.5 | 20.9 | 0.00 | 1.19 | 0.79 | 65 | 1012.0 |
| 20260506224505 | 12 | 274 | 16.1 | 24.1 | 0.00 | 1.22 | 0.79 | 64 | 1012.1 |
| 20260506223005 | 12 | 302 | 14.5 | 22.5 | 0.00 | 1.22 | 0.79 | 66 | 1012.4 |
| 20260506221502 | 12 | 273 | 16.1 | 27.4 | 0.00 | 1.22 | 0.79 | 65 | 1012.3 |
| 20260506220002 | 13 | 300 | 17.7 | 24.1 | 0.00 | 1.22 | 0.79 | 61 | 1012.4 |
| 20260506214607 | 13 | 277 | 16.1 | 22.5 | 0.00 | 1.63 | 0.79 | 62 | 1012.2 |
| 20260506213057 | 13 | 304 | 16.1 | 25.7 | 0.00 | 1.63 | 0.79 | 62 | 1011.8 |
| 20260506211556 | 13 | 274 | 12.9 | 20.9 | 0.00 | 1.63 | 0.79 | 61 | 1011.7 |
| 20260506210053 | 13 | 297 | 14.5 | 20.9 | 0.00 | 1.63 | 0.79 | 60 | 1011.4 |
| 20260506204555 | 13 | 300 | 14.5 | 24.1 | 0.00 | 1.63 | 0.79 | 60 | 1011.5 |
| 20260506203052 | 13 | 298 | 11.3 | 22.5 | 0.00 | 1.63 | 0.79 | 60 | 1011.5 |
| 20260506201551 | 13 | 273 | 12.9 | 22.5 | 0.00 | 1.63 | 0.79 | 61 | 1011.6 |
| 20260506200051 | 13 | 294 | 20.9 | 25.7 | 0.00 | 1.63 | 0.79 | 64 | 1011.4 |
| 20260506194550 | 13 | 279 | 19.3 | 24.1 | 0.00 | 1.63 | 0.79 | 61 | 1011.4 |
| 20260506193049 | 14 | 279 | 12.9 | 22.5 | 0.00 | 1.63 | 0.79 | 62 | 1011.3 |
| 20260506191548 | 14 | 279 | 14.5 | 25.7 | 0.00 | 1.63 | 0.79 | 60 | 1011.2 |
| 20260506190045 | 14 | 296 | 9.7 | 24.1 | 0.00 | 1.63 | 0.79 | 58 | 1011.1 |
| 20260506184545 | 13 | 290 | 17.7 | 24.1 | 0.00 | 1.63 | 0.79 | 60 | 1011.2 |
| 20260506183044 | 13 | 355 | 12.9 | 25.7 | 0.00 | 1.63 | 0.79 | 64 | 1011.3 |
| 20260506181539 | 13 | 355 | 9.7 | 20.9 | 0.00 | 1.63 | 0.79 | 58 | 1011.1 |
| 20260506180040 | 13 | 323 | 14.5 | 27.4 | 0.00 | 1.63 | 0.79 | 61 | 1011.6 |
| 20260506174539 | 13 | 315 | 17.7 | 27.4 | 0.00 | 1.63 | 0.79 | 61 | 1011.5 |
| 20260506173035 | 13 | 302 | 19.3 | 29.0 | 0.00 | 1.63 | 0.79 | 64 | 1011.6 |
| 20260506171534 | 13 | 319 | 14.5 | 25.7 | 0.00 | 1.63 | 0.79 | 66 | 1011.5 |
| 20260506170032 | 13 | 318 | 17.7 | 25.7 | 0.00 | 1.63 | 0.79 | 67 | 1011.7 |
| 20260506164531 | 12 | 321 | 17.7 | 24.1 | 0.00 | 1.63 | 0.79 | 71 | 1011.6 |
| 20260506163030 | 12 | 306 | 11.3 | 22.5 | 0.00 | 1.63 | 0.79 | 74 | 1011.5 |
| 20260506161530 | 12 | 316 | 9.7 | 20.9 | 0.00 | 1.63 | 0.79 | 73 | 1011.6 |
| 20260506160028 | 11 | 277 | 11.3 | 22.5 | 0.00 | 1.63 | 0.79 | 73 | 1011.6 |
| 20260506154524 | 11 | 296 | 12.9 | 22.5 | 0.03 | 1.63 | 0.79 | 76 | 1011.5 |
| 20260506153032 | 11 | 302 | 9.7 | 24.1 | 0.03 | 1.63 | 0.79 | 75 | 1011.2 |
| 20260506151520 | 10 | 319 | 11.3 | 25.7 | 0.03 | 1.63 | 0.79 | 76 | 1011.0 |
| 20260506150018 | 10 | 326 | 11.3 | 24.1 | 0.03 | 1.63 | 0.79 | 78 | 1010.7 |
| 20260506144535 | 10 | 296 | 17.7 | 22.5 | 0.00 | 1.60 | 0.76 | 83 | 1010.5 |
| 20260506143015 | 10 | 313 | 17.7 | 25.7 | 0.00 | 1.60 | 0.76 | 85 | 1010.5 |
| 20260506141513 | 10 | 296 | 17.7 | 24.1 | 0.00 | 1.60 | 0.76 | 85 | 1010.5 |
| 20260506140011 | 9 | 320 | 14.5 | 24.1 | 0.00 | 1.60 | 0.76 | 85 | 1010.1 |
| 20260506134509 | 8 | 301 | 14.5 | 22.5 | 0.00 | 1.60 | 0.76 | 86 | 1009.9 |
| 20260506133005 | 8 | 282 | 11.3 | 22.5 | 0.00 | 1.60 | 0.76 | 88 | 1009.8 |
| 20260506131503 | 8 | 288 | 17.7 | 22.5 | 0.00 | 1.60 | 0.76 | 89 | 1009.6 |
| 20260506130139 | 8 | 296 | 14.5 | 22.5 | 0.00 | 1.60 | 0.76 | 90 | 1009.5 |
| 20260506124556 | 8 | 316 | 12.9 | 17.7 | 0.00 | 1.63 | 0.76 | 91 | 1009.3 |
| 20260506123052 | 7 | 319 | 4.8 | 16.1 | 0.00 | 1.63 | 0.76 | 92 | 1009.2 |
| 20260506121554 | 7 | 313 | 12.9 | 20.9 | 0.00 | 1.63 | 0.76 | 93 | 1008.9 |
| 20260506120148 | 7 | 311 | 14.5 | 20.9 | 0.00 | 1.63 | 0.76 | 93 | 1008.5 |
| 20260506114546 | 7 | 307 | 16.1 | 24.1 | 0.00 | 1.63 | 0.76 | 93 | 1008.3 |
| 20260506113049 | 7 | 294 | 20.9 | 29.0 | 0.00 | 1.63 | 0.76 | 94 | 1008.2 |
| 20260506111541 | 7 | 304 | 17.7 | 24.1 | 0.00 | 1.63 | 0.76 | 94 | 1007.9 |
| 20260506110042 | 7 | 312 | 16.1 | 20.9 | 0.00 | 1.63 | 0.76 | 94 | 1007.2 |
| 20260506104535 | 7 | 306 | 11.3 | 17.7 | 0.00 | 1.63 | 0.76 | 94 | 1007.2 |
| 20260506103033 | 7 | 355 | 11.3 | 17.7 | 0.00 | 1.63 | 0.76 | 93 | 1006.5 |
| 20260506101535 | 7 | 336 | 8.0 | 16.1 | 0.00 | 1.63 | 0.76 | 94 | 1006.8 |
| 20260506100030 | 7 | 327 | 14.5 | 20.9 | 0.00 | 1.63 | 0.76 | 94 | 1006.8 |
| 20260506094528 | 7 | 304 | 11.3 | 19.3 | 0.00 | 1.63 | 0.76 | 94 | 1006.5 |
| 20260506093032 | 7 | 306 | 12.9 | 22.5 | 0.00 | 1.63 | 0.76 | 94 | 1006.1 |
| 20260506091524 | 7 | 305 | 19.3 | 29.0 | 0.03 | 1.63 | 0.76 | 94 | 1006.3 |
| 20260506090022 | 7 | 315 | 14.5 | 25.7 | 0.08 | 1.63 | 0.76 | 95 | 1006.0 |
| 20260506084520 | 7 | 360 | 12.9 | 22.5 | 0.10 | 1.63 | 0.76 | 95 | 1005.9 |
| 20260506083027 | 7 | 314 | 14.5 | 32.2 | 0.10 | 1.63 | 0.76 | 95 | 1005.8 |
| 20260506081516 | 7 | 296 | 20.9 | 29.0 | 0.10 | 1.60 | 0.71 | 94 | 1005.6 |
| 20260506073008 | 8 | 311 | 14.5 | 24.1 | 0.08 | 1.50 | 0.64 | 95 | 1005.2 |
| 20260506071506 | 8 | 360 | 11.3 | 22.5 | 0.18 | 1.50 | 0.64 | 95 | 1005.0 |